Regional Weather Roundup
Issued by NWS Memphis, TN

Home | Current Version | Previous Version | Text Only | Print | Product List | Glossary On
Versions: 1 2 3 4 5 6 7 8 9 10 11 12 13 14 15 16 17 18 19 20 21 22 23 24 25 26 27 28 29 30 31 32 33 34 35 36 37 38 39 40 41 42 43 44 45 46 47 48 49 50
000
ASUS44 KMEG 290500
RWRMEG
MEMPHIS CWA HOURLY WEATHER ROUNDUP
NATIONAL WEATHER SERVICE MEMPHIS TN
1200 AM CDT SAT APR 29 2017

...WEST TENNESSEE...

CITY           SKY/WX    TMP DP  RH WIND       PRES   REMARKS
MEMPHIS INTL   PTCLDY    78  70  76 S15G22    29.85S
NWS MEMPHIS      N/A     78 N/A N/A MISG        N/A
JACKSON        CLEAR     78  69  73 S16G26    29.85F
DYERSBURG      CLEAR     78  69  73 S10G20    29.80F


...EASTERN ARKANSAS...

CITY           SKY/WX    TMP DP  RH WIND       PRES   REMARKS
JONESBORO      PTCLDY    74  70  87 S9        29.76F
WEST MEMPHIS   CLEAR     77  71  82 S17       29.81F
BATESVILLE     PTCLDY    72  70  94 SE8       29.73F
NEWPORT        CLEAR     76  71  85 MISG      29.74F
WALNUT RIDGE   PTCLDY    73  68  83 S3G18     29.72F
BLYTHEVILLE    CLEAR     77  70  79 S15       29.78F
SEARCY         CLOUDY    79  73  82 S15G22    29.77F
STUTTGART      PTCLDY    75  63  64 SE14      29.79F
PINE BLUFF     CLEAR     78  71  79 S16G24    29.78F
MONTICELLO     CLEAR     79  70  74 S9G20     29.80F


...NORTH MISSISSIPPI...

CITY           SKY/WX    TMP DP  RH WIND       PRES   REMARKS
TUPELO         CLEAR     77  68  73 SE12      29.94R
TUNICA         PTCLDY    75  70  83 S16       29.85S
CLARKSDALE     PTCLDY    79  73  83 SE14      29.85S
GREENWOOD      CLEAR     77  71  82 S15       29.88S
COLUMBUS       CLEAR     77  72  83 S14G21    29.95F
STARKVILLE     CLEAR     73  70  88 S10       29.97S
GOLDEN TRIANGL CLEAR     75  66  73 SE16G22   29.94S


...SOUTHEAST MISSOURI...

CITY           SKY/WX    TMP DP  RH WIND       PRES   REMARKS
KENNETT        MOCLDY    79  72  78 S16G24    29.75S HAZE
MALDEN         PTCLDY    75  72  88 S9        29.77F
WEST PLAINS    CLOUDY    64  63  96 NE5       29.78F FOG
POPLAR BLUFF   CLOUDY    66  66 100 NE5       29.76F
CAPE GIRARDEAU CLOUDY    68  66  93 NW6       29.80R THUNDER


...NORTHWEST ALABAMA...

CITY           SKY/WX    TMP DP  RH WIND       PRES   REMARKS
MUSCLE SHOALS  PTCLDY    77  66  68 S13       29.97F


...MIDDLE TENNESSEE...

CITY           SKY/WX    TMP DP  RH WIND       PRES   REMARKS
NASHVILLE      CLEAR     78  67  68 S21G30    29.88F
CLARKSVILLE    CLOUDY    77  66  68 S18G28    29.85R
COLUMBIA       CLEAR     75  75 100 S13       29.92F


...WESTERN KENTUCKY...

CITY           SKY/WX    TMP DP  RH WIND       PRES   REMARKS
PADUCAH        CLOUDY    78  68  71 S8        29.78F
FORT CAMPBELL  CLOUDY    78  68  72 S13       29.85R


...CENTRAL ARKANSAS...

CITY           SKY/WX    TMP DP  RH WIND       PRES   REMARKS
LITTLE ROCK    CLOUDY    78  73  84 S13       29.75F


SKY/WX REPORTED AS FAIR MEANS FEW OR NO CLOUDS BELOW
12 THOUSAND FEET.




USA.gov is the U.S. government's official web portal to all federal, state and local government web resources and services.